Regional Weather Roundup
Issued by NWS

Home | Current Version | Previous Version | Graphics & Text | Print | Product List | Glossary On
Versions: 1 2 3 4 5 6 7 8 9 10 11 12 13 14 15 16 17 18 19 20 21 22 23 24 25 26 27 28 29 30 31 32 33 34 35 36 37 38 39 40 41 42 43 44 45 46 47 48 49 50
000
ASUS43 KLMK 290110
RWRKY
KENTUCKY REGIONAL WEATHER ROUNDUP
NATIONAL WEATHER SERVICE LOUISVILLE KY
900 PM EDT MON JUL 28 2014

NOTE "FAIR" INDICATES FEW OR NO CLOUDS BELOW 12,000 FEET
WITH NO SIGNIFICANT WEATHER AND/OR OBSTRUCTIONS TO VISIBILITY.

KYZ001>023-026-027-061>063-070>075-290200-
WESTERN AND SOUTH CENTRAL KENTUCKY

CITY           SKY/WX    TMP DP  RH WIND       PRES   REMARKS
PADUCAH        PTCLDY    76  61  59 N9        30.03S
HENDERSON      PTCLDY    72  55  56 N7        30.04R
OWENSBORO      CLEAR     72  56  57 N8        30.03S
HOPKINSVILLE   CLEAR     74  59  58 N7        30.02R
BOWLING GREEN  CLEAR     75  57  53 NW5       30.01R
GLASGOW        PTCLDY    71  59  65 N5        30.00S
$$

KYZ024-025-028>034-038-045-046-053-290200-
NORTH CENTRAL KENTUCKY

CITY           SKY/WX    TMP DP  RH WIND       PRES   REMARKS
LOUISVILLE/SDF PTCLDY    73  57  57 N13       30.00R
LOUISVILLE/LOU PTCLDY    73  56  54 NW7       30.00R
FORT KNOX      CLEAR     69  58  67 NW7       30.00R
$$

KYZ035>037-039>044-047>052-055>060-089>105-290200-
NORTHEAST KENTUCKY

CITY           SKY/WX    TMP DP  RH WIND       PRES   REMARKS
LEXINGTON      CLEAR     68  57  68 NW5       30.00R
COVINGTON      PTCLDY    67  54  63 NW9       30.00R
FRANKFORT      CLEAR     67  57  70 NW3       29.99S
$$

KYZ054-064>069-076>088-106>120-290200-
SOUTHEAST KENTUCKY

CITY           SKY/WX    TMP DP  RH WIND       PRES   REMARKS
JACKSON        PTCLDY    65  58  78 CALM      30.00R
LONDON         PTCLDY    70  58  65 NW3       30.01R
SOMERSET       MOCLDY    70  57  64 N3        30.02R
MIDDLESBORO    CLEAR     69  59  71 N3        30.00R
MONTICELLO     CLEAR     69  63  81 N5        30.02R
$$



USA.gov is the U.S. government's official web portal to all federal, state and local government web resources and services.